Regional Weather Roundup
Issued by NWS Jackson, KY

Home | Current Version | Previous Version | Graphics & Text | Print | Product List | Glossary On
Versions: 1 2 3 4 5 6 7 8 9 10 11 12 13 14 15 16 17 18 19 20 21 22 23 24 25 26 27
000
ASUS43 KJKL 222210
RWRJKL

EAST KENTUCKY HOURLY WEATHER ROUNDUP
NATIONAL WEATHER SERVICE JACKSON KY
500 PM EST MON JAN 22 2018

NOTE: "FAIR" INDICATES FEW OR NO CLOUDS BELOW 12,000 FEET WITH
NO SIGNIFICANT WEATHER AND/OR OBSTRUCTIONS TO VISIBILITY.

* THESE REPORTS ARE NOT UNDER NWS QUALITY CONTROL AND MAY NOT
  REPORT WEATHER SUCH AS PRECIPITATION AND FOG.

KYZ079-080-083-085-087-088-110-112-115-119-120-222300
...EASTERN KENTUCKY...

CITY           SKY/WX    TMP DP  RH WIND       PRES   REMARKS
JACKSON        LGT RAIN  56  48  74 VRB6      29.82F
LONDON         MOCLDY    57  50  77 S12G24    29.80F
SOMERSET*      CLOUDY    55  50  82 S7        29.81S
MONTICELLO*    CLOUDY    58  52  80 SE13      29.79F
WILLIAMSBURG*  MOCLDY    55  54  94 SE12G17   29.81F
MIDDLESBORO*   RAIN      53  53 100 CALM      29.87F
HARLAN APT*    CLOUDY    54  45  71 NE3       29.87F
PIKE CO APT*   CLOUDY    60  43  53 S3        29.86F
BIG SANDY APT* CLOUDY    61  46  58 S8        29.85F
MOREHEAD APT*  CLOUDY    59  48  67 S9G23     29.79F
ASHLAND*       LGT RAIN  58  49  72 SE7       29.80F
$$

KYZ035-036-041-042-044-050-067-078-099-222300
...CENTRAL KENTUCKY...

CITY           SKY/WX    TMP DP  RH WIND       PRES   REMARKS
MT STERLING*   MOCLDY    59  50  72 S15G21    29.76F
FLEMING/MASON* DRIZZLE   54  49  82 S14       29.75F
DANVILLE*      CLOUDY    55  50  82 S15G22    29.74F
LEXINGTON      MOCLDY    59  50  72 S22G36    29.73F
FRANKFORT      CLOUDY    58  48  69 S18G30    29.68F
LOUISVILLE     CLOUDY    60  52  74 S16G36    29.63F
LEBANON*         N/A     59  50  72 S15G23    29.70F
GLASGOW*       CLOUDY    60  53  78 S13G23    29.69F
BOWLING GREEN    N/A     62  55  77 S21G35    29.66F
$$

KYZ091>093-OHZ055-061-077-WVZ005-015-034-035-042-222300
...SOUTHERN OHIO/WEST VIRGINIA...

CITY           SKY/WX    TMP DP  RH WIND       PRES   REMARKS
COVINGTON      CLOUDY    57  50  77 S16G29    29.65F
COLUMBUS       LGT RAIN  54  49  83 SE10      29.74F
DAYTON         CLOUDY    53  49  86 S17G29    29.66F
WILMINGTON     CLOUDY    53  49  86 S17G28    29.69F
HUNTINGTON     LGT RAIN  60  46  59 S7        29.82F
CHARLESTON     MOCLDY    65  41  41 S8        29.85F
BECKLEY          N/A     57  38  48 S8        29.93F
BLUEFIELD        N/A     57  36  45 S13G21    29.97R
LOGAN CO APT*  DRIZZLE   61  43  51 S9        29.88S
$$

VAZ002-007-008-TNZ017-027-036-066-071-222300
...SOUTHWEST VIRGINIA/EAST TENNESSEE...

CITY           SKY/WX    TMP DP  RH WIND       PRES   REMARKS
WISE*          CLOUDY    55  45  67 S7        29.92F
JONESVILLE*      N/A     55  48  76 CALM      29.90F
ABINGDON*      LGT RAIN  61  44  53 S7        29.95F
BRISTOL        LGT RAIN  61  47  59 S12       29.93F
MORRISTOWN*    CLOUDY    57  48  72 SE5       29.87F
SEVIERVILLE*   CLOUDY    64  48  55 S7        29.86F
LAFOLLETTE*    CLOUDY    52  52 100 NE6       29.89F
CROSSVILLE     CLOUDY    53  51  93 S9G20     29.83S
NASHVILLE      PTSUNNY   63  54  72 S21G29    29.70F
$$

...KEY TO REMARKS...
VSB - VISIBILITY IN MILES
WCI - WIND CHILL INDEX
HX  - HEAT INDEX

$$




USA.gov is the U.S. government's official web portal to all federal, state and local government web resources and services.